{"data":{"norad_id":54770,"intl_designator":"2022-175N","name":"STARLINK-5448","alt_names":[],"object_type":"PAYLOAD","status":"ACTIVE","operator":null,"country":"US","launch_date":"2022-12-17","launch_site_code":"AFETR","launch_vehicle":null,"mission":null,"orbit_class":"UNKNOWN","rcs_meters":null,"size_class":null,"mass_kg":null,"dimensions":null,"purposes":["comms"],"wikipedia_slug":null,"has_3d_model":false,"image_url":null,"decayed_at":null,"tle_current":{"epoch":"2026-09-20T22:35:13.410816Z","epoch_age_seconds":51241,"freshness":"FRESH","line1":"1 54770U 22175N   26263.94112744  .00000156  00000+0  15753-4 0  9997","line2":"2 54770  53.1587 215.9618 0001251  85.5355 274.5791 15.34389108209835","mean_motion":15.34389108,"eccentricity":0.0001251,"inclination_deg":53.1587,"raan_deg":215.9618,"arg_perigee_deg":85.5355,"mean_anomaly_deg":274.5791,"bstar":1.5753e-5,"rev_number":20983,"period_min":93.848424268142,"perigee_km":461.87982055402,"apogee_km":463.59140688197,"semimajor_km":6840.872613718,"source":"CELESTRAK","updated_at":"2026-09-21T09:00:33.121996Z"}}}